Location: Go?cza
(50.3372°N, 19.9313°E)
Time: 01:53:38
(UTC+00:00)

ATLAS 2AS CENTAUR R/B - Pass Details

Date: 23 May 2024
Orbit: 1017 x 1194 km, 63.7° (Epoch: 18 June)

Event Time Altitude Azimuth Distance (km) Brightness Sun altitude
Rises 01:32:10 0° 316° (NW) 3,910 5.7 -9.2°
Reaches altitude 10° 01:34:53 10° 316° (NW) 2,925 5.1 -8.9°
Maximum altitude 01:41:47 85° 231° (SW) 1,057 2.7 -8.2°
Drops below altitude 10° 01:48:26 10° 142° (SE) 2,814 4.8 -7.4°
Sets 01:50:59 0° 142° (SE) 3,753 5.5 -7.1°
